EZY37NU EGKK-LXGB

Flight info

Callsign EZY37NU
Flight time N/A
Altitude 35000
Route IMVUR1Z IMVUR N63 SAM M195 MARUK N621 LELNA DCT NOVAN DCT DELOG DCT CRISA DCT VULPE DCT MAR N864 PIMOS DCT
Aircraft A320/M-SDE3FGHIRWY/LB1

Departure

Time 2026-05-04 11:26
Airport London Gatwick Airport (EGKK)

Arrival

Time N/A
Airport Gibraltar Airport (LXGB)
Time Latitude Longitude Altitude Speed Heading
2026-05-04 10:46 51.15846 -0.17635 210 ft 0 kts 347°
2026-05-04 11:08 51.15754 -0.17601 221 ft 2 kts 317°
2026-05-04 11:10 51.15750 -0.17578 221 ft 0 kts 264°
2026-05-04 11:13 51.15749 -0.17591 221 ft 4 kts 261°
2026-05-04 11:14 51.15743 -0.17633 219 ft 3 kts 257°
2026-05-04 11:14 51.15740 -0.17660 216 ft 2 kts 258°
2026-05-04 11:14 51.15738 -0.17674 217 ft 2 kts 258°
2026-05-04 11:16 51.15628 -0.18349 216 ft 10 kts 211°
2026-05-04 11:16 51.15556 -0.18336 215 ft 10 kts 168°
2026-05-04 11:16 51.15495 -0.18313 216 ft 8 kts 165°
2026-05-04 11:17 51.15438 -0.18295 217 ft 11 kts 169°
2026-05-04 11:17 51.15330 -0.18257 211 ft 21 kts 166°
2026-05-04 11:19 51.15058 -0.19236 212 ft 11 kts 243°
2026-05-04 11:19 51.14965 -0.19301 220 ft 16 kts 230°
2026-05-04 11:19 51.14937 -0.19465 218 ft 15 kts 257°
2026-05-04 11:19 51.14914 -0.19631 213 ft 16 kts 257°
2026-05-04 11:20 51.14889 -0.19813 213 ft 18 kts 258°
2026-05-04 11:20 51.14859 -0.20026 211 ft 21 kts 257°
2026-05-04 11:20 51.14825 -0.20272 217 ft 24 kts 260°
2026-05-04 11:20 51.14789 -0.20538 216 ft 25 kts 257°
2026-05-04 11:22 51.14577 -0.21311 214 ft 10 kts 161°
2026-05-04 11:22 51.14527 -0.21243 221 ft 9 kts 121°
2026-05-04 11:23 51.14521 -0.21159 215 ft 8 kts 80°
2026-05-04 11:23 51.14525 -0.21124 221 ft 0 kts 78°
2026-05-04 11:24 51.14532 -0.21069 212 ft 25 kts 78°
2026-05-04 11:25 51.14624 -0.20408 212 ft 93 kts 77°
2026-05-04 11:25 51.14804 -0.19098 219 ft 147 kts 78°
2026-05-04 11:25 51.15038 -0.17369 550 ft 161 kts 76°
2026-05-04 11:26 51.15445 -0.14434 1581 ft 176 kts 77°
2026-05-04 11:27 51.21279 -0.06336 4791 ft 213 kts 329°
2026-05-04 11:28 51.22354 -0.07911 5420 ft 212 kts 297°
2026-05-04 11:28 51.22718 -0.10118 6012 ft 211 kts 266°
2026-05-04 11:28 51.22488 -0.12476 6395 ft 223 kts 258°
2026-05-04 11:28 51.22184 -0.15062 6534 ft 251 kts 258°
2026-05-04 11:29 51.21843 -0.17897 7003 ft 265 kts 258°
2026-05-04 11:29 51.21500 -0.20817 7727 ft 270 kts 258°
2026-05-04 11:29 51.21156 -0.23781 8485 ft 274 kts 258°
2026-05-04 11:29 51.20809 -0.26780 9252 ft 277 kts 258°
2026-05-04 11:31 51.18068 -0.48691 14029 ft 299 kts 256°
2026-05-04 11:33 51.12319 -0.72540 17016 ft 357 kts 245°
2026-05-04 11:33 51.11341 -0.76184 17591 ft 360 kts 245°
2026-05-04 11:33 51.10357 -0.79853 18173 ft 362 kts 245°
2026-05-04 11:34 51.09365 -0.83554 18687 ft 365 kts 245°
2026-05-04 11:34 51.08364 -0.87285 19195 ft 368 kts 245°
2026-05-04 11:34 51.07355 -0.91038 19712 ft 370 kts 245°
2026-05-04 11:34 51.06343 -0.94803 20231 ft 372 kts 245°
2026-05-04 11:35 51.05321 -0.98595 20739 ft 374 kts 245°
2026-05-04 11:35 51.04288 -1.02412 21254 ft 377 kts 245°
2026-05-04 11:35 51.03246 -1.06244 21771 ft 379 kts 245°
2026-05-04 11:35 51.02196 -1.10097 22285 ft 381 kts 245°
2026-05-04 11:36 51.01142 -1.13972 22780 ft 384 kts 245°
2026-05-04 11:36 51.00095 -1.17819 23268 ft 386 kts 245°
2026-05-04 11:36 50.99021 -1.21746 23728 ft 389 kts 244°
2026-05-04 11:36 50.97942 -1.25685 24129 ft 391 kts 244°
2026-05-04 11:37 50.96819 -1.29620 24523 ft 392 kts 240°
2026-05-04 11:37 50.95344 -1.33233 24902 ft 391 kts 230°
2026-05-04 11:37 50.93475 -1.36360 25271 ft 391 kts 219°
2026-05-04 11:37 50.91293 -1.38913 25631 ft 391 kts 212°
2026-05-04 11:38 50.89011 -1.41276 25998 ft 392 kts 212°
2026-05-04 11:38 50.86723 -1.43655 26366 ft 394 kts 212°
2026-05-04 11:38 50.84437 -1.46038 26733 ft 395 kts 212°
2026-05-04 11:38 50.82135 -1.48435 27087 ft 396 kts 212°
2026-05-04 11:39 50.79828 -1.50831 27436 ft 397 kts 212°
2026-05-04 11:39 50.77512 -1.53230 27779 ft 399 kts 212°
2026-05-04 11:40 50.63462 -1.67713 29642 ft 407 kts 211°
2026-05-04 11:41 50.61357 -1.69874 29885 ft 408 kts 211°
2026-05-04 11:41 50.58970 -1.72321 30150 ft 410 kts 211°
2026-05-04 11:41 50.56610 -1.74736 30352 ft 411 kts 211°
2026-05-04 11:41 50.54205 -1.77194 30552 ft 413 kts 211°
2026-05-04 11:42 50.51793 -1.79663 30743 ft 415 kts 211°
2026-05-04 11:42 50.49376 -1.82139 31005 ft 415 kts 211°
2026-05-04 11:42 50.46954 -1.84613 31258 ft 415 kts 211°
2026-05-04 11:42 50.44532 -1.87083 31508 ft 415 kts 211°
2026-05-04 11:43 50.42111 -1.89549 31755 ft 416 kts 211°
2026-05-04 11:43 50.39683 -1.92014 32009 ft 416 kts 211°
2026-05-04 11:43 50.37249 -1.94477 32247 ft 416 kts 211°
2026-05-04 11:43 50.34814 -1.96938 32494 ft 417 kts 211°
2026-05-04 11:44 50.32376 -1.99402 32739 ft 417 kts 211°
2026-05-04 11:44 50.29941 -2.01862 32993 ft 417 kts 211°
2026-05-04 11:44 50.27489 -2.04297 33233 ft 417 kts 208°
2026-05-04 11:44 50.24875 -2.06221 33481 ft 416 kts 199°
2026-05-04 11:45 50.22089 -2.07425 33714 ft 416 kts 190°
2026-05-04 11:45 50.19219 -2.07935 33940 ft 417 kts 185°
2026-05-04 11:45 50.16325 -2.08301 34147 ft 417 kts 185°
2026-05-04 11:45 50.13466 -2.08671 34334 ft 417 kts 185°
2026-05-04 11:46 50.10571 -2.09050 34519 ft 418 kts 185°
2026-05-04 11:46 50.07671 -2.09429 34705 ft 418 kts 185°
2026-05-04 11:46 50.04770 -2.09810 34879 ft 419 kts 185°
2026-05-04 11:46 50.01861 -2.10189 34999 ft 419 kts 185°
2026-05-04 11:47 49.98974 -2.10616 35035 ft 416 kts 189°
2026-05-04 11:47 49.93401 -2.12903 35031 ft 414 kts 196°
2026-05-04 11:48 49.87883 -2.15483 35032 ft 414 kts 196°
2026-05-04 11:48 49.82366 -2.18065 35030 ft 414 kts 196°
2026-05-04 11:49 49.76847 -2.20634 35029 ft 414 kts 196°
2026-05-04 11:49 49.71329 -2.23197 35028 ft 414 kts 196°
2026-05-04 11:50 49.65852 -2.25731 35027 ft 414 kts 196°
2026-05-04 11:50 49.60328 -2.28290 35028 ft 414 kts 196°
2026-05-04 11:51 49.54806 -2.30839 35027 ft 414 kts 196°
2026-05-04 11:51 49.49287 -2.33381 35026 ft 414 kts 196°
2026-05-04 11:52 49.43761 -2.35914 35028 ft 414 kts 196°
2026-05-04 11:52 49.38231 -2.38441 35029 ft 414 kts 196°
2026-05-04 11:53 49.32741 -2.40936 35030 ft 414 kts 196°
2026-05-04 11:53 49.27219 -2.43451 35031 ft 414 kts 196°
2026-05-04 11:55 49.05113 -2.53480 35032 ft 414 kts 196°
2026-05-04 11:56 48.99615 -2.55954 35023 ft 415 kts 195°
2026-05-04 11:56 48.94070 -2.58438 35024 ft 415 kts 195°
2026-05-04 11:57 48.88530 -2.60916 35021 ft 415 kts 195°
2026-05-04 11:57 48.82982 -2.63399 35023 ft 415 kts 195°
2026-05-04 11:58 48.77438 -2.65876 35016 ft 416 kts 195°
2026-05-04 11:58 48.71888 -2.68346 35011 ft 416 kts 195°
2026-05-04 11:59 48.66373 -2.70791 35007 ft 416 kts 195°
2026-05-04 11:59 48.60812 -2.73252 35001 ft 416 kts 195°
2026-05-04 12:00 48.55258 -2.75711 35000 ft 417 kts 195°
2026-05-04 12:00 48.49689 -2.78173 35001 ft 417 kts 195°
2026-05-04 12:01 48.44113 -2.80619 35001 ft 417 kts 195°
2026-05-04 12:02 48.24616 -2.89153 35005 ft 419 kts 196°
2026-05-04 12:03 48.19019 -2.91589 35000 ft 419 kts 196°
2026-05-04 12:03 48.13424 -2.94023 34998 ft 419 kts 196°
2026-05-04 12:04 48.07866 -2.96437 35000 ft 419 kts 196°
2026-05-04 12:04 48.02262 -2.98861 35000 ft 419 kts 196°
2026-05-04 12:05 47.96662 -3.01275 34999 ft 419 kts 196°
2026-05-04 12:05 47.91053 -3.03693 34997 ft 419 kts 196°
2026-05-04 12:06 47.85443 -3.06094 34996 ft 419 kts 196°
2026-05-04 12:06 47.79838 -3.08496 35006 ft 419 kts 196°
2026-05-04 12:07 47.74270 -3.10880 35012 ft 420 kts 196°
2026-05-04 12:07 47.68660 -3.13285 35008 ft 419 kts 196°
2026-05-04 12:08 47.63060 -3.15664 35008 ft 419 kts 196°
2026-05-04 12:08 47.55733 -3.18772 35008 ft 419 kts 196°
2026-05-04 12:09 47.33328 -3.28244 35006 ft 418 kts 195°
2026-05-04 12:09 47.10908 -3.37623 35000 ft 419 kts 195°
2026-05-04 12:10 46.88429 -3.46961 35007 ft 420 kts 195°
2026-05-04 12:10 46.66023 -3.56164 35004 ft 421 kts 195°
2026-05-04 12:11 46.43419 -3.65379 35014 ft 422 kts 195°
2026-05-04 12:11 46.20403 -3.71649 35004 ft 422 kts 186°
2026-05-04 12:12 45.97036 -3.75169 35013 ft 422 kts 187°
2026-05-04 12:12 45.73665 -3.78602 35025 ft 421 kts 187°